Location: Cuiabá
(15.6014°S, 56.0979°W)
Time: 16:32:34
(UTC-04:00)

Envisat - Pass Details

Date: 29 November 2022
Orbit: 763 x 765 km, 98.2° (Epoch: 05 February)

Event Time Altitude Azimuth Distance (km) Brightness Sun altitude
Exits shadow 03:09:22 - 24° (NNE) 2,360 5.4 -25.2°
Reaches altitude 10° 03:09:33 10° 25° (NNE) 2,292 5.4 -25.2°
Maximum altitude 03:14:31 59° 103° (ESE) 882 3.5 -24.2°
Drops below altitude 10° 03:19:31 10° 182° (S) 2,312 5.8 -23.2°
Sets 03:21:52 0° 185° (S) 3,243 6.6 -22.7°
